Location: Adaghas
(31.2259°N, 9.0496°W)
Time: 03:57:31
(UTC+00:00)

Nadezhda 4 Rocket - Pass Details

Date: 18 September 2020
Orbit: 949 x 993 km, 82.9° (Epoch: 23 October)

Event Time Altitude Azimuth Distance (km) Brightness Sun altitude
Rises 20:40:02 0° 354° (N) 3,625 7.3 -26.5°
Reaches altitude 10° 20:42:32 10° 355° (N) 2,676 6.6 -27.0°
Maximum altitude 20:48:39 89° 85° (E) 954 3.8 -28.2°
Enters shadow 20:49:19 73° 172° (S) 992 3.8 -28.4°
